Tracking 19636 objects as of 24-May-2019
HD Live streaming from Space Station
objects crossing your sky now

SSB

Track SSB now!
10-day predictions
SSB is classified as:


NORAD ID: 13845
Int'l Code: 1983-008F
Perigee: 412.4 km
Apogee: 1,733.8 km
Inclination: 63.3 °
Period: 106.5 minutes
Semi major axis: 7444 km
RCS: Unknown
Launch date: February 9, 1983
Source: United States (US)
Launch site: AIR FORCE WESTERN TEST RANGE (AFWTR)
aabbcc
Your satellite tracking list
Your tracking list is empty




NASA's NSSDC Master Catalog

Two Line Element Set (TLE):
1 13845U 83008F   18348.72117085 0.00000500  00000-0  49650-4 0    01
2 13845  63.3070 237.0586 0887577  69.5354 290.4646 13.51715700    08
Source of the keplerian elements: McCants